Orbital Elements at Epoch 2459200.5 (2020-Dec-17.0) TDB
Reference: JPL 19 (heliocentric ecliptic J2000)
Element | Value | Uncertainty (1-sigma) | Units |
e | .1609127164089362 | 5.1939e-08 | |
a | 2.845710376255764 | 2.2433e-08 | au |
q | 2.387799389499353 | 1.5216e-07 | au |
i | 16.0362110434708 | 5.6337e-06 | deg |
node | 111.2104738615883 | 1.5222e-05 | deg |
peri | 238.9286812138796 | 2.154e-05 | deg |
M | 12.76905929062819 | 1.3806e-05 | deg |
tp | 2459138.307090299769 (2020-Oct-15.80709030) | 6.7152e-05 | TDB |
period | 1753.414012926992 4.80 | 2.0734e-05 5.677e-08 | d yr |
n | .2053137464089546 | 2.4278e-09 | deg/d |
Q | 3.303621363012175 | 2.6043e-08 | au |
|
| | Orbit Determination Parameters
Additional Information
|